Погода в Газалкенте

Узбекистан     41°33′42″N   69°46′15″E
темп.,
°C
ветер,
м/с
пор.,
м/с
влажн.,
%
обл.,
%
осадки,
мм/ч
давл.,
гПа
погр.,
м
27 января, ср
ср2723:00−3всв44520 0.0 102946
02:00−3всв44490 0.0 102845
05:00−3всв44470 0.0 102840
08:00−4всв44470 0.0 102939
11:00+1всв22710 0.0 102841
14:00+2з00900 0.0 102722
17:00−1в11700 0.0 102722
20:00−2всв34540 0.0 102932
28 января, чт
чт2823:00−3всв34510 0.0 102837
02:00−3всв44460 0.0 102841
05:00−3всв44450 0.0 102843
08:00−3всв44450 0.0 102847
11:00+2всв33650 0.0 102765
14:00+3вюв11830 0.0 102627
17:00+1всв22600 0.0 102622
20:00−1всв44500 0.0 102839
29 января, пт
пт2923:00−2всв44440 0.0 102750
02:00−2всв54410 0.0 102757
05:00−2всв55410 0.0 102660
08:00−2всв55400 0.0 102658
11:00+3всв45550 0.0 102576
14:00+5всв23640 0.0 102358
17:00+3всв33500 0.0 102329
20:000всв55390 0.0 102459
30 января, сб
сб3023:000всв67330 0.0 102387
02:00−1всв67330 0.0 102390
05:00−1всв67320 0.0 102289
08:00−1всв77310 0.0 102196
11:00+4всв684221 0.0 1020135
14:00+6всв5652100 0.0 1017115
17:00+5всв6744100 0.0 101774
20:00+4всв6738100 0.0 101785
31 января, вс
вс3123:00+5всв7839100 0.0 101697
02:00+5всв5647100 0.0 101571
05:00+6всв7850100 0.1 101399
08:00+6всв7851100 0.0 101292
11:00+8всв5657100 0.0 101199
14:00+9ссв2270100 0.0 101037
17:00+6в1270100 0.0 101022
20:00+3ююв1173100 0.0 101522